• Em Portugal
  • Lista de países
  • Para 7 dias
  • Temperatura da água
  • Mapas de satélite
  • Mapa do tempo
  • Widgets de tempo
  • user-avatar
    Iniciar Sessão

    Previsão horária em Melbourne

    Hoje, 24 Setembro, Segunda-feira

    Tempo Temperatura Precipitação Vento Pressão Humidade
    00:00 +7°C° 0 mm 3 m/s 772 mmHg 78%
    01:00 +7°C° 0 mm 3 m/s 772 mmHg 81%
    02:00 +7°C° 0 mm 3 m/s 772 mmHg 82%
    03:00 +5°C° 0 mm 3 m/s 772 mmHg 83%
    04:00 +6°C° 0 mm 2 m/s 771 mmHg 86%
    05:00 +6°C° 0 mm 2 m/s 771 mmHg 85%
    06:00 +7°C° 0 mm 2 m/s 772 mmHg 85%
    07:00 +7°C° 0 mm 2 m/s 772 mmHg 84%
    08:00 +9°C° 0 mm 2 m/s 772 mmHg 75%
    09:00 +11°C° 0 mm 3 m/s 772 mmHg 65%
    10:00 +13°C° 0 mm 3 m/s 772 mmHg 56%
    11:00 +14°C° 0 mm 3 m/s 771 mmHg 53%
    12:00 +16°C° 0 mm 3 m/s 771 mmHg 49%
    13:00 +17°C° 0 mm 3 m/s 771 mmHg 46%
    14:00 +17°C° 0 mm 3 m/s 770 mmHg 49%
    15:00 +17°C° 0 mm 4 m/s 770 mmHg 52%
    16:00 +15°C° 0 mm 4 m/s 770 mmHg 54%
    17:00 +14°C° 0 mm 4 m/s 770 mmHg 63%
    18:00 +12°C° 0 mm 3 m/s 770 mmHg 72%
    19:00 +10°C° 0 mm 3 m/s 770 mmHg 82%
    20:00 +9°C° 0 mm 3 m/s 770 mmHg 84%
    21:00 +9°C° 0 mm 3 m/s 771 mmHg 86%
    22:00 +8°C° 0 mm 2 m/s 771 mmHg 89%
    23:00 +8°C° 0 mm 2 m/s 771 mmHg 90%

    Amanhã, 25 Setembro, Terça-feira

    Tempo Temperatura Precipitação Vento Pressão Humidade
    00:00 +7°C° 0 mm 2 m/s 771 mmHg 91%
    01:00 +7°C° 0 mm 2 m/s 770 mmHg 92%
    02:00 +7°C° 0 mm 2 m/s 770 mmHg 93%
    03:00 +7°C° 0 mm 2 m/s 770 mmHg 93%
    04:00 +6°C° 0 mm 2 m/s 770 mmHg 93%
    05:00 +8°C° 0 mm 1 m/s 770 mmHg 92%
    06:00 +8°C° 0 mm 1 m/s 770 mmHg 92%
    07:00 +8°C° 0 mm 1 m/s 771 mmHg 91%
    08:00 +9°C° 0 mm 2 m/s 771 mmHg 81%
    09:00 +12°C° 0 mm 2 m/s 770 mmHg 72%
    10:00 +14°C° 0 mm 2 m/s 770 mmHg 62%
    11:00 +14°C° 0 mm 2 m/s 770 mmHg 60%
    12:00 +14°C° 0 mm 3 m/s 770 mmHg 58%
    13:00 +14°C° 0 mm 3 m/s 769 mmHg 56%
    14:00 +14°C° 0 mm 3 m/s 769 mmHg 57%
    15:00 +13°C° 0 mm 3 m/s 768 mmHg 58%
    16:00 +13°C° 0 mm 4 m/s 768 mmHg 59%
    17:00 +12°C° 0 mm 3 m/s 768 mmHg 64%
    18:00 +10°C° 0 mm 3 m/s 768 mmHg 69%
    19:00 +9°C° 0 mm 3 m/s 768 mmHg 73%
    20:00 +8°C° 0 mm 2 m/s 769 mmHg 78%
    21:00 +7°C° 0 mm 2 m/s 769 mmHg 83%
    22:00 +6°C° 0 mm 2 m/s 769 mmHg 88%
    23:00 +7°C° 0 mm 1 m/s 769 mmHg 89%

    Depois de amanhã, 26 Setembro, Quarta-feira

    Tempo Temperatura Precipitação Vento Pressão Humidade
    00:00 +6°C° 0 mm 1 m/s 768 mmHg 91%
    01:00 +6°C° 0 mm 1 m/s 768 mmHg 92%
    02:00 +5°C° 0 mm 1 m/s 768 mmHg 93%
    03:00 +5°C° 0 mm 1 m/s 767 mmHg 93%
    04:00 +5°C° 0 mm 1 m/s 767 mmHg 94%
    05:00 +5°C° 0 mm 1 m/s 767 mmHg 93%
    06:00 +6°C° 0 mm 1 m/s 767 mmHg 93%
    07:00 +5°C° 0 mm 0 m/s 767 mmHg 92%
    08:00 +9°C° 0 mm 1 m/s 766 mmHg 80%
    09:00 +12°C° 0 mm 1 m/s 766 mmHg 68%
    10:00 +15°C° 0 mm 1 m/s 766 mmHg 56%
    11:00 +18°C° 0 mm 1 m/s 765 mmHg 52%
    12:00 +18°C° 0 mm 2 m/s 764 mmHg 47%
    13:00 +19°C° 0 mm 2 m/s 764 mmHg 43%
    14:00 +19°C° 0 mm 2 m/s 763 mmHg 44%
    15:00 +20°C° 0 mm 2 m/s 762 mmHg 45%
    16:00 +20°C° 0 mm 2 m/s 762 mmHg 46%
    17:00 +18°C° 0 mm 2 m/s 762 mmHg 53%
    18:00 +16°C° 0 mm 2 m/s 762 mmHg 61%
    19:00 +14°C° 0 mm 2 m/s 762 mmHg 68%
    20:00 +14°C° 0 mm 2 m/s 762 mmHg 72%
    21:00 +13°C° 0 mm 2 m/s 762 mmHg 75%
    22:00 +13°C° 0 mm 2 m/s 762 mmHg 79%
    23:00 +13°C° 0 mm 2 m/s 761 mmHg 78%

    27 Setembro, Quinta-feira

    Tempo Temperatura Precipitação Vento Pressão Humidade
    00:00 +12°C° 0 mm 3 m/s 761 mmHg 77%
    01:00 +12°C° 0 mm 3 m/s 760 mmHg 76%
    02:00 +13°C° 0 mm 4 m/s 759 mmHg 71%
    03:00 +13°C° 0 mm 4 m/s 759 mmHg 65%
    04:00 +14°C° 0 mm 5 m/s 758 mmHg 60%
    05:00 +14°C° 0 mm 5 m/s 758 mmHg 60%
    06:00 +14°C° 0 mm 5 m/s 758 mmHg 60%
    07:00 +14°C° 0 mm 5 m/s 758 mmHg 61%
    08:00 +15°C° 0 mm 5 m/s 758 mmHg 56%
    09:00 +17°C° 0 mm 5 m/s 758 mmHg 52%
    10:00 +20°C° 0 mm 5 m/s 758 mmHg 48%
    11:00 +21°C° 0 mm 5 m/s 757 mmHg 47%
    12:00 +22°C° 0 mm 5 m/s 757 mmHg 45%
    13:00 +23°C° 0 mm 5 m/s 757 mmHg 44%
    14:00 +23°C° 0 mm 5 m/s 756 mmHg 44%
    15:00 +22°C° 0 mm 5 m/s 756 mmHg 45%
    16:00 +22°C° 0 mm 5 m/s 756 mmHg 45%
    17:00 +20°C° 0 mm 4 m/s 757 mmHg 56%
    18:00 +17°C° 0 mm 4 m/s 757 mmHg 67%
    19:00 +13°C° 0 mm 3 m/s 758 mmHg 78%
    20:00 +13°C° 0 mm 3 m/s 758 mmHg 81%
    21:00 +12°C° 0 mm 3 m/s 759 mmHg 84%
    22:00 +12°C° 0 mm 3 m/s 760 mmHg 86%
    23:00 +11°C° 0 mm 3 m/s 759 mmHg 88%

    28 Setembro, Sexta-feira

    Tempo Temperatura Precipitação Vento Pressão Humidade
    00:00 +10°C° 0 mm 3 m/s 759 mmHg 91%
    01:00 +9°C° 0 mm 3 m/s 759 mmHg 93%
    02:00 +9°C° 0 mm 3 m/s 759 mmHg 92%
    03:00 +8°C° 0 mm 3 m/s 759 mmHg 92%
    04:00 +8°C° 0 mm 2 m/s 758 mmHg 92%
    05:00 +8°C° 0 mm 3 m/s 759 mmHg 91%
    06:00 +8°C° 0 mm 3 m/s 759 mmHg 89%
    07:00 +8°C° 0 mm 3 m/s 760 mmHg 88%
    08:00 +10°C° 0 mm 3 m/s 760 mmHg 80%
    09:00 +12°C° 0 mm 3 m/s 760 mmHg 72%
    10:00 +14°C° 0 mm 3 m/s 760 mmHg 64%
    11:00 +14°C° 0.2 mm 3 m/s 759 mmHg 64%
    12:00 +14°C° 0.2 mm 3 m/s 759 mmHg 64%
    13:00 +16°C° 0.2 mm 3 m/s 759 mmHg 65%
    14:00 +14°C° 0.3 mm 3 m/s 758 mmHg 69%
    15:00 +13°C° 0.3 mm 3 m/s 758 mmHg 74%
    16:00 +13°C° 0.3 mm 4 m/s 758 mmHg 79%
    17:00 +11°C° 0.4 mm 4 m/s 758 mmHg 84%
    18:00 +10°C° 0.4 mm 3 m/s 759 mmHg 89%
    19:00 +9°C° 0.4 mm 3 m/s 760 mmHg 94%
    20:00 +8°C° 0.5 mm 3 m/s 760 mmHg 94%
    21:00 +8°C° 0.5 mm 3 m/s 760 mmHg 94%
    22:00 +7°C° 0.5 mm 3 m/s 761 mmHg 94%
    23:00 +7°C° 0.1 mm 3 m/s 761 mmHg 94%

    29 Setembro, Sábado

    Tempo Temperatura Precipitação Vento Pressão Humidade
    00:00 +5°C° 0.1 mm 3 m/s 761 mmHg 94%
    01:00 +4°C° 0.1 mm 4 m/s 761 mmHg 94%
    02:00 +4°C° 0.1 mm 4 m/s 761 mmHg 94%
    03:00 +4°C° 0.1 mm 4 m/s 761 mmHg 94%
    04:00 +3°C° 0.1 mm 4 m/s 761 mmHg 94%
    05:00 +4°C° 0.1 mm 4 m/s 762 mmHg 93%
    06:00 +4°C° 0.1 mm 4 m/s 763 mmHg 93%
    07:00 +4°C° 0.1 mm 4 m/s 763 mmHg 92%
    08:00 +6°C° 0.1 mm 4 m/s 764 mmHg 82%
    09:00 +7°C° 0.1 mm 4 m/s 764 mmHg 71%
    10:00 +9°C° 0.1 mm 5 m/s 764 mmHg 60%
    11:00 +10°C° 0.1 mm 5 m/s 764 mmHg 55%
    12:00 +12°C° 0.1 mm 4 m/s 764 mmHg 50%
    13:00 +13°C° 0.1 mm 4 m/s 764 mmHg 45%
    14:00 +12°C° 0 mm 4 m/s 764 mmHg 49%
    15:00 +12°C° 0 mm 4 m/s 765 mmHg 52%
    16:00 +12°C° 0 mm 3 m/s 765 mmHg 55%
    17:00 +11°C° 0 mm 3 m/s 765 mmHg 60%
    18:00 +9°C° 0 mm 2 m/s 766 mmHg 65%
    19:00 +8°C° 0 mm 2 m/s 766 mmHg 70%
    20:00 +7°C° 0 mm 2 m/s 767 mmHg 74%
    21:00 +7°C° 0 mm 2 m/s 767 mmHg 78%
    22:00 +6°C° 0 mm 2 m/s 768 mmHg 82%
    23:00 +5°C° 0 mm 2 m/s 768 mmHg 84%
    Mostrar mais

    3.3.7123123